This is the latest recevied weather packets stored in our database for station/object K4CRS-13. If no packets are shown the sender has not sent any weather packets the latest 10 day(s).
| Time | Temp. | Humidity | Pressure | Rain* | Wind** | Luminosity | Snow |
|---|---|---|---|---|---|---|---|
| 1777919052 | 25° C | 50% | 1049.4 hPa | 0 mm | - | 878 W/m² | - |
| 1777918748 | 25° C | 53% | 1049.4 hPa | 0 mm | - | 861 W/m² | - |
| 1777918446 | 23.89° C | 51% | 1049.6 hPa | 0 mm | - | 263 W/m² | - |
| 1777918144 | 23.89° C | 52% | 1049.7 hPa | 0 mm | - | 348 W/m² | - |
| 1777917843 | 23.89° C | 52% | 1049.7 hPa | 0 mm | - | 378 W/m² | - |
| 1777917541 | 25.56° C | 45% | 1049.7 hPa | 0 mm | - | 374 W/m² | - |
| 1777917237 | 25.56° C | 47% | 1049.9 hPa | 0 mm | - | 952 W/m² | - |
| 1777916935 | 25° C | 49% | 1050 hPa | 0 mm | - | 901 W/m² | - |
| 1777916632 | 25° C | 49% | 1049.9 hPa | 0 mm | - | 850 W/m² | - |
| 1777916329 | 24.44° C | 52% | 1050 hPa | 0 mm | - | 824 W/m² | - |
| 1777916026 | 25° C | 48% | 1050.2 hPa | 0 mm | - | 653 W/m² | - |
| 1777915723 | 25° C | 52% | 1050 hPa | 0 mm | - | 912 W/m² | - |
| 1777915419 | 24.44° C | 54% | 1050.3 hPa | 0 mm | - | 767 W/m² | - |
| 1777915115 | 24.44° C | 49% | 1050.5 hPa | 0 mm | - | 995 W/m² | - |
| 1777914813 | 24.44° C | 50% | 1050.6 hPa | 0 mm | - | 789 W/m² | - |
| 1777914510 | 25° C | 50% | 1050.3 hPa | 0 mm | - | 292 W/m² | - |
| 1777914206 | 25.56° C | 53% | 1050.5 hPa | 0 mm | - | 868 W/m² | - |
| 1777913903 | 24.44° C | 56% | 1050.4 hPa | 0 mm | - | 869 W/m² | - |
| 1777913599 | 24.44° C | 52% | 1050.5 hPa | 0 mm | - | 430 W/m² | - |
| 1777913296 | 24.44° C | 51% | 1050.8 hPa | 0 mm | - | 722 W/m² | - |
| 1777912993 | 24.44° C | 52% | 1050.7 hPa | 0 mm | - | 799 W/m² | - |
| 1777912689 | 24.44° C | 50% | 1050.7 hPa | 0 mm | - | 789 W/m² | - |
| 1777912385 | 23.89° C | 57% | 1050.9 hPa | 0 mm | - | 834 W/m² | - |
| 1777912081 | 23.89° C | 55% | 1050.9 hPa | 0 mm | - | 811 W/m² | - |
| 1777911777 | 23.33° C | 52% | 1051.1 hPa | 0 mm | - | 798 W/m² | - |
* Rain latest hour (hover to see other rain measurements)
** Current wind speed in m/s (hover to see current wind gust speed)